Location: Peterborough
(44.3000°N, 78.3333°W)
Time: 14:53:06
(UTC-05:00)

ISS - Visible Passes

Search period start: 10 December 2018 00:00
Search period end: 20 December 2018 00:00
Orbit: 401 x 408 km, 51.6° (Epoch: 10 December)

Date Brightness Start Highest point End Pass type
(mag) Time Alt. Az. Time Alt. Az. Time Alt. Az.
10 Dec -3.8 17:41:30 10° NW 17:44:45 63° NNE 17:47:08 17° ESE visible
10 Dec -0.8 19:18:33 10° W 19:19:51 16° WSW 19:19:51 16° WSW visible
11 Dec -2.2 18:25:57 10° WNW 18:28:57 34° SW 18:30:39 20° SSE visible
12 Dec -3.3 17:33:36 10° WNW 17:36:50 62° SW 17:40:03 10° SE visible
13 Dec -0.8 18:18:44 10° W 18:20:46 16° SW 18:22:47 10° S visible
14 Dec -1.5 17:25:55 10° WNW 17:28:45 27° SW 17:31:34 10° SSE visible
16 Dec -0.3 17:19:00 10° WSW 17:20:28 13° SW 17:21:56 10° SSW visible
